DW0841 Weather Reports


Display with metric or nautical units.
time (UTC)temp
F
wind
direction
speed
MPH
gust
MPH
rain 1hr
in
rain 24hr
in
rain mn
in
humidity
%
barometer
mb
20260904172117 52 0.0 0.0 0.00 0.00 0.00 75 1001.4
20260904171117 52 293 1.0 3.0 0.00 0.00 0.00 75 1001.4
20260904170158 52 0.0 1.0 0.00 0.00 0.00 74 1001.7
20260904165117 53 23 1.0 3.0 0.00 0.00 0.00 74 1001.8
20260904164117 53 0.0 1.0 0.00 0.00 0.00 73 1002.1
20260904163117 53 315 1.0 3.0 0.00 0.00 0.00 73 1002.2
20260904162117 52 0.0 1.0 0.00 0.00 0.00 73 1002.5
20260904161117 52 0 1.0 2.0 0.00 0.00 0.00 73 1002.7
20260904160117 52 338 1.0 2.0 0.00 0.00 0.00 73 1002.8
20260904155117 51 23 2.0 7.0 0.00 0.00 0.00 75 1002.9
20260904154117 51 0.0 1.0 0.00 0.00 0.00 74 1003.1
20260904153117 52 0.0 0.0 0.00 0.00 0.00 72 1003.3
20260904152157 52 0 1.0 3.0 0.00 0.00 0.00 72 1003.2
20260904151117 52 0.0 1.0 0.00 0.00 0.00 73 1003.3
20260904150117 51 0 1.0 3.0 0.00 0.00 0.00 74 1003.3
20260904145117 51 293 1.0 3.0 0.00 0.00 0.00 74 1003.3
20260904144117 51 0.0 1.0 0.00 0.00 0.00 73 1003.3
20260904143117 51 0.0 1.0 0.00 0.00 0.00 73 1003.3
20260904142117 52 0.0 0.0 0.00 0.00 0.00 72 1003.3
20260904141117 52 23 1.0 3.0 0.00 0.00 0.00 71 1003.5
20260904140117 52 23 3.0 7.0 0.00 0.00 0.00 71 1003.7
20260904135116 52 68 4.0 10.0 0.00 0.00 0.00 71 1003.6
20260904134116 52 0.0 1.0 0.00 0.00 0.00 71 1003.7
20260904133117 52 0.0 1.0 0.00 0.00 0.00 71 1003.8
20260904132116 52 0 1.0 6.0 0.00 0.00 0.00 70 1003.8
20260904131116 52 23 4.0 6.0 0.00 0.00 0.00 70 1003.8
20260904130116 52 0 2.0 8.0 0.00 0.00 0.00 71 1004.0
20260904125116 52 23 2.0 4.0 0.00 0.00 0.00 71 1004.1
20260904124116 52 315 2.0 4.0 0.00 0.00 0.00 71 1004.4
20260904123117 51 315 2.0 3.0 0.00 0.00 0.00 71 1004.4
20260904122137 51 270 2.0 4.0 0.00 0.00 0.00 71 1004.6
20260904121116 51 293 2.0 5.0 0.00 0.00 0.00 70 1004.8
20260904120116 51 23 1.0 2.0 0.00 0.00 0.00 70 1004.6
20260904115216 51 315 2.0 4.0 0.00 0.00 0.00 70 1004.8
20260904094218 49 23 2.0 3.0 0.00 0.00 0.00 75 1005.2
20260904093218 50 90 1.0 2.0 0.00 0.00 0.00 76 1005.0
20260904092218 50 270 1.0 2.0 0.00 0.00 0.00 75 1005.4
20260904091218 50 315 2.0 4.0 0.00 0.00 0.00 75 1005.5
20260904090218 51 45 5.0 11.0 0.00 0.00 0.00 74 1005.3
20260904085218 53 0.0 0.0 0.00 0.00 0.00 65 1005.8
20260904084218 53 293 1.0 3.0 0.00 0.00 0.00 63 1005.3
20260904083217 53 0.0 1.0 0.00 0.00 0.00 62 1005.0
20260904082218 53 0 2.0 5.0 0.00 0.00 0.00 62 1005.0
20260904081217 53 0.0 1.0 0.00 0.00 0.00 62 1004.9
20260904080238 53 0.0 1.0 0.00 0.02 0.00 61 1005.0
20260904075218 54 0.0 0.0 0.00 0.02 0.00 59 1005.0
20260904074218 54 0.0 2.0 0.00 0.03 0.00 59 1004.7
20260904073218 55 0.0 1.0 0.00 0.03 0.00 57 1004.6
20260904072218 55 0.0 1.0 0.00 0.03 0.00 53 1004.6
20260904071218 55 225 2.0 4.0 0.00 0.03 0.00 53 1004.8
20260904070217 55 225 1.0 2.0 0.00 0.03 0.00 51 1004.8
20260904065238 56 248 1.0 3.0 0.00 0.03 0.00 53 1004.7
20260904064218 57 293 3.0 6.0 0.00 0.03 0.00 50 1004.8
20260904063218 57 315 4.0 9.0 0.00 0.03 0.00 49 1004.9
20260904062218 57 315 3.0 4.0 0.00 0.03 0.00 50 1005.0
20260904061217 57 270 1.0 2.0 0.00 0.03 0.00 48 1005.2
20260904060217 57 293 7.0 12.0 0.00 0.03 0.00 50 1005.4
20260904055218 57 270 3.0 7.0 0.00 0.06 0.00 50 1005.2
20260904054218 58 293 4.0 7.0 0.00 0.06 0.00 51 1005.3
20260904053238 58 315 1.0 2.0 0.00 0.09 0.00 48 1005.2
20260904052217 59 293 1.0 4.0 0.00 0.11 0.00 47 1005.2
20260904051218 59 293 1.0 2.0 0.00 0.11 0.00 48 1005.2
20260904050218 60 293 2.0 4.0 0.00 0.11 0.00 48 1005.1
20260904045217 59 248 1.0 2.0 0.00 0.14 0.00 45 1005.2
20260904044218 59 0 1.0 2.0 0.00 0.17 0.00 44 1005.3
20260904043258 59 180 1.0 2.0 0.00 0.18 0.00 47 1005.4
20260904042217 59 338 1.0 2.0 0.00 0.18 0.00 48 1005.3
20260904041238 59 23 1.0 3.0 0.00 0.18 0.00 45 1005.3
20260904040238 60 0.0 0.0 0.00 0.18 0.00 44 1005.4
20260904035218 60 0.0 1.0 0.00 0.18 0.00 43 1005.7
20260904034217 60 0 3.0 11.0 0.00 0.18 0.00 46 1005.7
20260904033217 60 90 1.0 3.0 0.00 0.18 0.00 44 1005.7
20260904032218 60 293 1.0 3.0 0.00 0.18 0.00 46 1005.7
20260904031238 59 0.0 2.0 0.00 0.18 0.00 47 1005.9
20260904030217 59 158 1.0 6.0 0.00 0.18 0.00 47 1006.0
20260904025237 58 225 1.0 5.0 0.00 0.18 0.00 43 1006.2
20260904024217 58 293 3.0 6.0 0.00 0.18 0.00 44 1006.3
20260904023238 59 270 4.0 9.0 0.00 0.18 0.00 46 1006.7
20260904022217 60 0.0 1.0 0.00 0.18 0.00 45 1006.5
20260904021217 59 0.0 1.0 0.00 0.18 0.00 44 1006.8
20260904020218 58 0.0 0.0 0.00 0.18 0.00 49 1007.1
20260904015217 57 0.0 2.0 0.00 0.18 0.00 54 1007.0
20260904014258 56 0.0 1.0 0.00 0.18 0.00 52 1007.1
20260904013218 56 0.0 0.0 0.00 0.18 0.00 50 1007.2
20260904012218 56 315 2.0 5.0 0.00 0.18 0.00 49 1007.4
20260904011217 56 0.0 0.0 0.00 0.18 0.00 51 1007.2
20260904010218 56 0.0 1.0 0.00 0.18 0.00 55 1007.2
20260904005217 55 225 2.0 4.0 0.00 0.18 0.00 53 1007.2
20260904004218 55 270 4.0 7.0 0.00 0.18 0.00 51 1007.1
20260904002218 55 315 4.0 10.0 0.00 0.18 0.00 52 1007.5
20260904001217 55 0.0 4.0 0.00 0.18 0.00 55 1007.5
20260904000218 56 0.0 2.0 0.00 0.18 0.00 52 1007.5
20260903235217 56 0.0 0.0 0.00 0.18 0.00 56 1007.5
20260903234217 56 68 1.0 3.0 0.00 0.18 0.00 50 1007.6
20260903233217 55 0.0 0.0 0.00 0.18 0.00 59 1007.6
20260903232217 53 68 2.0 3.0 0.00 0.18 0.00 58 1007.8
20260903231217 52 0.0 1.0 0.00 0.18 0.00 65 1007.9
20260903230217 52 0.0 0.0 0.00 0.18 0.00 64 1008.2
20260903225217 52 0.0 0.0 0.00 0.18 0.00 60 1008.1
20260903224217 52 0.0 1.0 0.00 0.18 0.00 58 1008.1
20260903223218 52 0.0 0.0 0.00 0.18 0.00 56 1008.2
20260903222217 51 0.0 1.0 0.00 0.18 0.00 67 1008.2
20260903221218 50 45 2.0 3.0 0.00 0.18 0.00 66 1008.1
20260903220237 48 0.0 0.0 0.00 0.18 0.00 70 1008.1
20260903215217 46 45 2.0 3.0 0.00 0.18 0.00 75 1008.1
20260903214218 45 0.0 0.0 0.00 0.19 0.00 74 1008.1
20260903213217 45 0.0 0.0 0.00 0.19 0.00 73 1007.8
20260903212217 46 0.0 0.0 0.00 0.19 0.00 71 1007.5
20260903211217 46 45 2.0 4.0 0.00 0.19 0.00 71 1007.3
20260903210217 47 0.0 1.0 0.00 0.20 0.00 69 1007.3
20260903205217 48 0.0 0.0 0.00 0.20 0.00 66 1007.1
20260903204217 48 0.0 0.0 0.00 0.20 0.00 63 1006.9
20260903203217 48 0.0 1.0 0.00 0.20 0.00 66 1006.8
20260903202217 47 68 1.0 3.0 0.00 0.20 0.00 69 1006.8
20260903201217 49 0.0 0.0 0.00 0.23 0.00 67 1006.7
20260903200217 49 315 3.0 7.0 0.00 0.27 0.00 69 1006.7
20260903195217 49 338 1.0 3.0 0.00 0.30 0.00 67 1006.9
20260903194217 49 0.0 0.0 0.00 0.32 0.00 69 1006.7
20260903193217 49 0.0 2.0 0.00 0.36 0.00 67 1006.7
20260903192218 50 0.0 0.0 0.00 0.41 0.00 64 1006.6
20260903191258 50 338 1.0 3.0 0.00 0.43 0.00 66 1006.3
20260903190238 49 45 4.0 5.0 0.00 0.43 0.00 64 1006.3
20260903185217 49 90 1.0 3.0 0.00 0.43 0.00 68 1006.1
20260903184238 49 0.0 2.0 0.00 0.43 0.00 67 1005.8
20260903183217 48 135 3.0 4.0 0.00 0.43 0.00 67 1005.8
20260903182217 49 113 1.0 2.0 0.00 0.43 0.00 63 1005.8
20260903181217 49 0 1.0 3.0 0.00 0.43 0.00 63 1005.4
20260903180237 48 338 3.0 4.0 0.00 0.43 0.00 64 1005.5
20260903175217 48 0.0 1.0 0.00 0.43 0.00 66 1005.4
20260903174237 48 90 2.0 4.0 0.00 0.43 0.00 66 1005.5
20260903173217 47 180 1.0 2.0 0.00 0.43 0.00 69 1005.1